TimeCEST,TemperatureF,Dew PointF,Humidity,Sea Level PressureIn,VisibilityMPH,Wind Direction,Wind SpeedMPH,Gust SpeedMPH,PrecipitationIn,Events,Conditions,WindDirDegrees,DateUTC
12:20 AM,55.4,51.8,88,30.06,-9999.0,Calm,Calm,-,N/A,,Clear,0,2012-10-23 22:20:00
12:50 AM,53.6,50.0,88,30.04,-9999.0,Variable,1.2,-,N/A,,Clear,0,2012-10-23 22:50:00
1:20 AM,53.6,51.8,94,30.04,5.0,Calm,Calm,-,N/A,,Unknown,0,2012-10-23 23:20:00
1:50 AM,51.8,50.0,94,30.04,4.3,Calm,Calm,-,N/A,,Unknown,0,2012-10-23 23:50:00
2:20 AM,51.8,50.0,94,30.04,4.3,Variable,1.2,-,N/A,,Unknown,0,2012-10-24 00:20:00
2:50 AM,51.8,48.2,88,30.04,4.3,Variable,1.2,-,N/A,,Unknown,0,2012-10-24 00:50:00
3:20 AM,50.0,48.2,94,30.04,4.3,Variable,2.3,-,N/A,,Unknown,0,2012-10-24 01:20:00
3:50 AM,51.8,50.0,94,30.01,-9999.0,Variable,2.3,-,N/A,,Clear,0,2012-10-24 01:50:00
4:20 AM,51.8,48.2,88,30.01,-9999.0,Calm,Calm,-,N/A,,Clear,0,2012-10-24 02:20:00
4:50 AM,50.0,46.4,87,30.01,-9999.0,NE,3.5,-,N/A,,Clear,40,2012-10-24 02:50:00
5:20 AM,48.2,46.4,93,30.01,-9999.0,Variable,1.2,-,N/A,,Clear,0,2012-10-24 03:20:00
5:50 AM,48.2,46.4,93,30.01,-9999.0,Calm,Calm,-,N/A,,Clear,0,2012-10-24 03:50:00
6:20 AM,48.2,48.2,100,30.01,-9999.0,Calm,Calm,-,N/A,,Clear,0,2012-10-24 04:20:00
6:50 AM,48.2,46.4,93,30.01,-9999.0,Variable,1.2,-,N/A,,Clear,0,2012-10-24 04:50:00
7:20 AM,46.4,44.6,93,30.01,6.2,Calm,Calm,-,N/A,Fog,Shallow Fog,0,2012-10-24 05:20:00
7:50 AM,48.2,46.4,93,30.01,6.2,Calm,Calm,-,N/A,Fog,Shallow Fog,0,2012-10-24 05:50:00
8:20 AM,46.4,44.6,93,30.01,6.2,Variable,2.3,-,N/A,Fog,Shallow Fog,0,2012-10-24 06:20:00
8:50 AM,50.0,48.2,94,30.04,-9999.0,Calm,Calm,-,N/A,,Clear,0,2012-10-24 06:50:00
9:20 AM,53.6,50.0,88,30.04,-9999.0,Calm,Calm,-,N/A,,Clear,0,2012-10-24 07:20:00
9:50 AM,57.2,50.0,77,30.04,-9999.0,Calm,Calm,-,N/A,,Clear,0,2012-10-24 07:50:00
10:20 AM,59.0,50.0,72,30.04,-9999.0,Variable,2.3,-,N/A,,Clear,0,2012-10-24 08:20:00
10:50 AM,60.8,51.8,72,30.04,-9999.0,Variable,1.2,-,N/A,,Clear,0,2012-10-24 08:50:00
11:20 AM,64.4,51.8,64,30.01,-9999.0,Variable,1.2,-,N/A,,Clear,0,2012-10-24 09:20:00
11:50 AM,66.2,51.8,60,30.01,-9999.0,Variable,1.2,-,N/A,,Clear,0,2012-10-24 09:50:00
12:20 PM,68.0,51.8,56,30.01,-9999.0,Variable,2.3,-,N/A,,Clear,0,2012-10-24 10:20:00
12:50 PM,69.8,50.0,49,30.01,-9999.0,Variable,3.5,-,N/A,,Clear,0,2012-10-24 10:50:00
1:20 PM,73.4,48.2,41,30.01,-9999.0,Variable,1.2,-,N/A,,Clear,0,2012-10-24 11:20:00
1:50 PM,73.4,48.2,41,29.98,-9999.0,Variable,2.3,-,N/A,,Clear,0,2012-10-24 11:50:00
2:20 PM,73.4,48.2,41,29.98,6.2,Variable,1.2,-,N/A,,Partly Cloudy,0,2012-10-24 12:20:00
2:50 PM,75.2,48.2,38,29.98,6.2,Variable,2.3,-,N/A,,Partly Cloudy,0,2012-10-24 12:50:00
3:20 PM,77.0,50.0,39,29.95,-9999.0,Variable,2.3,-,N/A,,Clear,0,2012-10-24 13:20:00
3:50 PM,73.4,51.8,47,29.95,-9999.0,Variable,2.3,-,N/A,,Clear,0,2012-10-24 13:50:00
4:20 PM,77.0,51.8,41,29.95,-9999.0,Variable,1.2,-,N/A,,Clear,0,2012-10-24 14:20:00
4:50 PM,75.2,53.6,47,29.95,-9999.0,Calm,Calm,-,N/A,,Clear,0,2012-10-24 14:50:00
5:20 PM,75.2,51.8,44,29.95,-9999.0,Calm,Calm,-,N/A,,Clear,0,2012-10-24 15:20:00
5:50 PM,73.4,51.8,47,29.95,-9999.0,Variable,1.2,-,N/A,,Clear,0,2012-10-24 15:50:00
6:20 PM,68.0,55.4,64,29.95,-9999.0,Variable,2.3,-,N/A,,Clear,0,2012-10-24 16:20:00
6:50 PM,66.2,55.4,68,29.95,-9999.0,Variable,1.2,-,N/A,,Clear,0,2012-10-24 16:50:00
7:20 PM,62.6,55.4,77,29.95,-9999.0,Variable,1.2,-,N/A,,Clear,0,2012-10-24 17:20:00
7:50 PM,60.8,51.8,72,29.95,-9999.0,East,3.5,-,N/A,,Clear,90,2012-10-24 17:50:00
8:20 PM,60.8,53.6,77,29.95,-9999.0,Calm,Calm,-,N/A,,Clear,0,2012-10-24 18:20:00
8:50 PM,60.8,53.6,77,29.98,-9999.0,SSW,1.2,-,N/A,,Clear,200,2012-10-24 18:50:00
9:20 PM,59.0,53.6,82,29.98,-9999.0,Variable,2.3,-,N/A,,Clear,0,2012-10-24 19:20:00
9:50 PM,57.2,53.6,88,29.98,-9999.0,Variable,1.2,-,N/A,,Clear,0,2012-10-24 19:50:00
10:20 PM,57.2,53.6,88,29.98,-9999.0,North,2.3,-,N/A,,Clear,360,2012-10-24 20:20:00
10:50 PM,57.2,53.6,88,29.98,-9999.0,East,2.3,-,N/A,,Clear,90,2012-10-24 20:50:00
11:20 PM,55.4,51.8,88,29.98,-9999.0,Variable,2.3,-,N/A,,Clear,0,2012-10-24 21:20:00
11:50 PM,55.4,51.8,88,29.98,-9999.0,Calm,Calm,-,N/A,,Clear,0,2012-10-24 21:50:00